QPF
0.00 0.00 0.00 0.00 0.00 0.00 0.01 0.01 0.01 0.01 0.00 0.00 0.00 0.01 0.00 0.00 0.00 0.00 0.00 0.00 0.00 0.00 0.01 0.00 0.00 0.00 0.00 0.01 0.01 0.01 0.01 0.00 0.01 0.01 0.01 0.02 0.03 0.03 0.02 0.02 0.01 0.01 0.02 0.03
0.00 0.00 0.00 0.00 0.00 0.00 0.01 0.01 0.01 0.01 0.01 0.00 0.00 0.01 0.01 0.01 0.01 0.00 0.00 0.00 0.00 0.00 0.00 0.00 0.00 0.00 0.00 0.01 0.01 0.01 0.01 0.00 0.00 0.00 0.00 0.01 0.01 0.01 0.02 0.01 0.01 0.02 0.02 0.02
0.00 0.00 0.00 0.00 0.00 0.01 0.01 0.01 0.01 0.01 0.01 0.01 0.01 0.01 0.01 0.01 0.01 0.01 0.00 0.00 0.00 0.00 0.00 0.01 0.01 0.01 0.00 0.01 0.01 0.01 0.01 0.01 0.00 0.00 0.00 0.01 0.01 0.01 0.01 0.01 0.02 0.02 0.01 0.01
0.00 0.00 0.00 0.00 0.00 0.01 0.01 0.01 0.01 0.02 0.01 0.01 0.01 0.01 0.01 0.00 0.01 0.01 0.01 0.00 0.00 0.00 0.00 0.00 0.01 0.01 0.01 0.01 0.01 0.01 0.01 0.02 0.01 0.01 0.01 0.01 0.01 0.02 0.02 0.02 0.02 0.02 0.02 0.01
0.00 0.00 0.00 0.00 0.01 0.01 0.02 0.01 0.01 0.01 0.01 0.01 0.01 0.01 0.01 0.00 0.00 0.01 0.01 0.01 0.00 0.00 0.00 0.00 0.00 0.01 0.01 0.00 0.00 0.01 0.01 0.02 0.02 0.01 0.01 0.01 0.01 0.01 0.02 0.01 0.02 0.03 0.02 0.01
0.01 0.00 0.00 0.00 0.01 0.01 0.01 0.01 0.01 0.01 0.02 0.01 0.01 0.01 0.01 0.00 0.00 0.00 0.01 0.01 0.00 0.00 0.00 0.00 0.01 0.01 0.01 0.00 0.01 0.01 0.01 0.01 0.02 0.02 0.02 0.01 0.01 0.01 0.02 0.03 0.04 0.04 0.03 0.02
0.01 0.01 0.01 0.01 0.01 0.01 0.01 0.01 0.01 0.02 0.02 0.01 0.01 0.01 0.01 0.00 0.00 0.01 0.01 0.00 0.00 0.00 0.00 0.00 0.00 0.00 0.01 0.01 0.01 0.01 0.01 0.01 0.02 0.02 0.02 0.01 0.01 0.01 0.02 0.04 0.05 0.04 0.03 0.02
0.00 0.00 0.01 0.00 0.01 0.01 0.01 0.00 0.01 0.02 0.02 0.01 0.01 0.01 0.00 0.00 0.00 0.01 0.00 0.00 0.00 0.00 0.00 0.00 0.00 0.00 0.01 0.01 0.01 0.01 0.01 0.01 0.01 0.02 0.02 0.01 0.02 0.02 0.02 0.02 0.03 0.03 0.02 0.02
0.00 0.00 0.01 0.00 0.00 0.01 0.01 0.00 0.00 0.01 0.01 0.01 0.01 0.00 0.00 0.00 0.00 0.00 0.00 0.00 0.00 0.00 0.00 0.00 0.00 0.00 0.00 0.01 0.01 0.01 0.01 0.01 0.01 0.01 0.01 0.01 0.02 0.02 0.02 0.02 0.01 0.01 0.01 0.02
0.00 0.00 0.01 0.00 0.00 0.00 0.00 0.00 0.00 0.01 0.01 0.01 0.01 0.00 0.00 0.00 0.00 0.00 0.00 0.00 0.00 0.00 0.00 0.00 0.00 0.00 0.00 0.00 0.01 0.01 0.01 0.01 0.01 0.01 0.01 0.01 0.01 0.01 0.02 0.02 0.01 0.01 0.02 0.01
0.00 0.00 0.01 0.00 0.00 0.00 0.00 0.00 0.00 0.01 0.01 0.01 0.01 0.00 0.00 0.00 0.00 0.00 0.00 0.00 0.00 0.00 0.00 0.00 0.00 0.00 0.00 0.00 0.00 0.00 0.00 0.01 0.01 0.01 0.01 0.01 0.01 0.01 0.01 0.01 0.01 0.01 0.02 0.01
0.00 0.00 0.00 0.00 0.00 0.00 0.00 0.00 0.00 0.01 0.00 0.00 0.00 0.00 0.00 0.00 0.00 0.00 0.00 0.00 0.00 0.00 0.00 0.00 0.00 0.00 0.00 0.00 0.00 0.00 0.00 0.01 0.01 0.01 0.01 0.01 0.02 0.02 0.01 0.01 0.01 0.01 0.02 0.01
0.00 0.00 0.00 0.00 0.00 0.00 0.00 0.00 0.00 0.00 0.00 0.00 0.01 0.00 0.00 0.00 0.00 0.00 0.00 0.00 0.00 0.00 0.00 0.00 0.01 0.01 0.01 0.01 0.00 0.00 0.00 0.00 0.00 0.01 0.01 0.01 0.01 0.01 0.01 0.01 0.01 0.01 0.01 0.02
0.00 0.00 0.00 0.00 0.00 0.00 0.00 0.00 0.00 0.00 0.00 0.00 0.00 0.00 0.00 0.00 0.00 0.00 0.00 0.00 0.00 0.00 0.00 0.00 0.01 0.02 0.02 0.02 0.02 0.01 0.00 0.00 0.00 0.01 0.01 0.02 0.01 0.01 0.01 0.01 0.01 0.01 0.01 0.02
0.00 0.00 0.00 0.00 0.00 0.00 0.00 0.00 0.00 0.00 0.00 0.00 0.00 0.00 0.00 0.00 0.00 0.00 0.00 0.00 0.00 0.00 0.00 0.01 0.01 0.01 0.01 0.01 0.01 0.01 0.01 0.00 0.00 0.01 0.01 0.02 0.02 0.02 0.02 0.01 0.01 0.01 0.01 0.02
0.00 0.00 0.00 0.00 0.00 0.00 0.00 0.00 0.00 0.00 0.00 0.00 0.00 0.00 0.00 0.00 0.00 0.00 0.00 0.00 0.00 0.00 0.00 0.01 0.01 0.01 0.01 0.01 0.01 0.00 0.01 0.00 0.00 0.01 0.02 0.03 0.04 0.04 0.03 0.02 0.01 0.01 0.01 0.01
0.01 0.00 0.00 0.00 0.00 0.00 0.00 0.00 0.00 0.00 0.00 0.00 0.00 0.00 0.00 0.00 0.00 0.00 0.00 0.00 0.00 0.01 0.00 0.01 0.01 0.02 0.02 0.02 0.02 0.01 0.01 0.01 0.01 0.01 0.02 0.03 0.05 0.05 0.03 0.02 0.02 0.02 0.01 0.01
0.01 0.00 0.01 0.00 0.00 0.00 0.00 0.00 0.00 0.00 0.00 0.00 0.00 0.00 0.00 0.00 0.00 0.00 0.00 0.00 0.01 0.01 0.00 0.01 0.02 0.02 0.04 0.04 0.05 0.04 0.02 0.01 0.01 0.02 0.02 0.03 0.04 0.06 0.05 0.03 0.02 0.01 0.01 0.01
0.00 0.01 0.01 0.01 0.00 0.00 0.00 0.00 0.00 0.00 0.00 0.00 0.00 0.00 0.00 0.00 0.00 0.00 0.00 0.00 0.00 0.00 0.00 0.01 0.01 0.03 0.06 0.08 0.08 0.07 0.05 0.02 0.02 0.02 0.02 0.02 0.02 0.04 0.04 0.04 0.03 0.02 0.01 0.01
0.01 0.01 0.01 0.01 0.01 0.00 0.00 0.00 0.00 0.00 0.00 0.00 0.00 0.00 0.00 0.00 0.00 0.00 0.00 0.00 0.00 0.00 0.00 0.01 0.01 0.02 0.06 0.09 0.08 0.08 0.08 0.05 0.03 0.02 0.02 0.02 0.02 0.02 0.03 0.04 0.03 0.02 0.02 0.02
0.01 0.01 0.01 0.00 0.00 0.00 0.00 0.00 0.00 0.00 0.00 0.00 0.00 0.00 0.00 0.00 0.00 0.00 0.00 0.00 0.00 0.01 0.01 0.01 0.01 0.01 0.04 0.05 0.05 0.05 0.06 0.05 0.05 0.04 0.03 0.02 0.02 0.02 0.02 0.03 0.04 0.04 0.03 0.03
0.01 0.01 0.01 0.01 0.01 0.01 0.00 0.00 0.01 0.01 0.00 0.00 0.00 0.00 0.00 0.00 0.00 0.00 0.00 0.00 0.00 0.01 0.01 0.01 0.01 0.01 0.01 0.02 0.03 0.03 0.03 0.05 0.06 0.04 0.03 0.03 0.03 0.03 0.02 0.03 0.04 0.04 0.03 0.03
0.01 0.01 0.01 0.01 0.01 0.01 0.00 0.00 0.00 0.00 0.00 0.00 0.00 0.00 0.00 0.00 0.00 0.00 0.00 0.00 0.00 0.01 0.01 0.01 0.01 0.01 0.01 0.02 0.02 0.04 0.05 0.07 0.05 0.03 0.02 0.02 0.03 0.03 0.03 0.02 0.04 0.05 0.05 0.03
0.01 0.01 0.01 0.01 0.00 0.00 0.00 0.00 0.00 0.00 0.00 0.00 0.00 0.00 0.00 0.00 0.00 0.00 0.00 0.00 0.00 0.00 0.01 0.01 0.01 0.01 0.01 0.02 0.04 0.07 0.08 0.06 0.03 0.03 0.02 0.02 0.03 0.03 0.02 0.02 0.02 0.03 0.05 0.04
0.02 0.02 0.02 0.02 0.01 0.01 0.01 0.00 0.00 0.00 0.00 0.00 0.00 0.01 0.01 0.01 0.01 0.00 0.00 0.00 0.00 0.00 0.00 0.01 0.01 0.01 0.01 0.02 0.04 0.09 0.06 0.05 0.05 0.04 0.04 0.03 0.02 0.02 0.02 0.01 0.01 0.01 0.02 0.03
0.01 0.02 0.02 0.03 0.02 0.02 0.01 0.01 0.00 0.00 0.00 0.00 0.01 0.01 0.01 0.01 0.01 0.01 0.01 0.00 0.00 0.00 0.01 0.01 0.01 0.01 0.01 0.02 0.03 0.04 0.05 0.06 0.06 0.04 0.04 0.03 0.02 0.02 0.01 0.01 0.01 0.01 0.01 0.01
MSLP
1013.07 1013.69 1014.23 1014.67 1015.00 1015.26 1015.48 1015.69 1015.93 1016.20 1016.49 1016.77 1017.01 1017.16 1017.22 1017.16 1017.01 1016.80 1016.55 1016.32 1016.12 1015.99 1015.92 1015.90 1015.90 1015.90 1015.88 1015.82 1015.74 1015.63 1015.52 1015.42 1015.36 1015.33 1015.34 1015.36 1015.37 1015.36 1015.29 1015.18 1015.02 1014.84 1014.66 1014.53
1013.42 1013.94 1014.37 1014.71 1014.98 1015.19 1015.40 1015.64 1015.93 1016.26 1016.61 1016.95 1017.23 1017.42 1017.50 1017.45 1017.30 1017.09 1016.85 1016.63 1016.46 1016.34 1016.28 1016.26 1016.26 1016.24 1016.18 1016.09 1015.95 1015.80 1015.66 1015.55 1015.48 1015.47 1015.49 1015.54 1015.58 1015.59 1015.55 1015.45 1015.29 1015.12 1014.95 1014.82
1013.64 1014.04 1014.37 1014.64 1014.85 1015.05 1015.28 1015.56 1015.90 1016.29 1016.70 1017.08 1017.39 1017.60 1017.68 1017.65 1017.51 1017.32 1017.11 1016.92 1016.77 1016.69 1016.65 1016.63 1016.62 1016.57 1016.47 1016.33 1016.16 1015.97 1015.80 1015.68 1015.62 1015.63 1015.68 1015.77 1015.84 1015.88 1015.86 1015.78 1015.64 1015.48 1015.32 1015.21
1013.71 1014.00 1014.24 1014.45 1014.65 1014.88 1015.16 1015.50 1015.91 1016.35 1016.79 1017.20 1017.52 1017.72 1017.80 1017.76 1017.64 1017.47 1017.29 1017.15 1017.05 1017.00 1016.99 1016.99 1016.96 1016.89 1016.76 1016.58 1016.36 1016.15 1015.96 1015.84 1015.80 1015.83 1015.91 1016.03 1016.14 1016.20 1016.20 1016.14 1016.02 1015.88 1015.74 1015.65
1013.63 1013.82 1014.00 1014.19 1014.42 1014.71 1015.06 1015.49 1015.96 1016.46 1016.93 1017.33 1017.63 1017.80 1017.86 1017.80 1017.68 1017.54 1017.40 1017.31 1017.27 1017.27 1017.29 1017.31 1017.28 1017.20 1017.04 1016.83 1016.59 1016.36 1016.16 1016.05 1016.01 1016.06 1016.17 1016.31 1016.44 1016.52 1016.54 1016.49 1016.39 1016.27 1016.15 1016.09
1013.44 1013.54 1013.69 1013.90 1014.19 1014.57 1015.02 1015.54 1016.08 1016.62 1017.09 1017.47 1017.73 1017.86 1017.87 1017.79 1017.67 1017.54 1017.45 1017.41 1017.43 1017.49 1017.56 1017.60 1017.58 1017.49 1017.32 1017.09 1016.84 1016.59 1016.40 1016.29 1016.27 1016.33 1016.45 1016.59 1016.72 1016.81 1016.83 1016.78 1016.69 1016.58 1016.50 1016.46
1013.18 1013.21 1013.35 1013.61 1013.98 1014.45 1015.02 1015.62 1016.23 1016.79 1017.26 1017.60 1017.80 1017.87 1017.83 1017.72 1017.60 1017.50 1017.45 1017.46 1017.54 1017.65 1017.76 1017.83 1017.83 1017.74 1017.57 1017.34 1017.09 1016.85 1016.66 1016.56 1016.55 1016.61 1016.73 1016.87 1016.98 1017.05 1017.05 1017.00 1016.91 1016.81 1016.74 1016.72
1012.91 1012.89 1013.03 1013.33 1013.79 1014.36 1015.01 1015.70 1016.35 1016.92 1017.37 1017.66 1017.81 1017.82 1017.74 1017.61 1017.48 1017.40 1017.40 1017.47 1017.60 1017.76 1017.91 1018.00 1018.02 1017.94 1017.78 1017.56 1017.32 1017.10 1016.94 1016.85 1016.85 1016.91 1017.02 1017.13 1017.22 1017.25 1017.23 1017.15 1017.04 1016.95 1016.88 1016.88
1012.67 1012.61 1012.76 1013.10 1013.61 1014.26 1014.98 1015.70 1016.37 1016.93 1017.35 1017.60 1017.69 1017.66 1017.56 1017.42 1017.31 1017.27 1017.31 1017.43 1017.60 1017.80 1017.98 1018.10 1018.13 1018.07 1017.93 1017.74 1017.53 1017.34 1017.21 1017.15 1017.16 1017.23 1017.32 1017.40 1017.45 1017.45 1017.38 1017.28 1017.15 1017.04 1016.98 1016.98
1012.51 1012.43 1012.57 1012.93 1013.47 1014.14 1014.87 1015.60 1016.25 1016.78 1017.15 1017.36 1017.42 1017.38 1017.27 1017.16 1017.09 1017.10 1017.19 1017.35 1017.56 1017.79 1017.98 1018.11 1018.15 1018.11 1018.00 1017.84 1017.67 1017.53 1017.45 1017.43 1017.47 1017.55 1017.64 1017.70 1017.72 1017.67 1017.57 1017.43 1017.28 1017.16 1017.09 1017.09
1012.47 1012.37 1012.50 1012.84 1013.36 1013.99 1014.68 1015.36 1015.95 1016.43 1016.75 1016.93 1016.99 1016.96 1016.89 1016.83 1016.82 1016.89 1017.03 1017.24 1017.47 1017.71 1017.90 1018.03 1018.08 1018.05 1017.96 1017.85 1017.74 1017.67 1017.65 1017.69 1017.77 1017.87 1017.97 1018.03 1018.02 1017.96 1017.83 1017.67 1017.50 1017.36 1017.28 1017.27
1012.57 1012.46 1012.55 1012.84 1013.29 1013.84 1014.43 1015.01 1015.51 1015.91 1016.18 1016.34 1016.40 1016.41 1016.41 1016.43 1016.50 1016.64 1016.84 1017.08 1017.34 1017.57 1017.76 1017.87 1017.92 1017.90 1017.85 1017.79 1017.74 1017.75 1017.80 1017.91 1018.04 1018.19 1018.31 1018.37 1018.37 1018.30 1018.16 1018.00 1017.83 1017.69 1017.60 1017.58
1012.80 1012.68 1012.74 1012.95 1013.28 1013.70 1014.15 1014.59 1014.96 1015.26 1015.48 1015.62 1015.71 1015.77 1015.85 1015.97 1016.14 1016.36 1016.62 1016.90 1017.16 1017.39 1017.56 1017.66 1017.70 1017.69 1017.67 1017.66 1017.68 1017.76 1017.89 1018.07 1018.27 1018.47 1018.62 1018.72 1018.73 1018.68 1018.56 1018.41 1018.25 1018.12 1018.04 1018.02
1013.14 1013.03 1013.03 1013.14 1013.34 1013.59 1013.87 1014.13 1014.36 1014.55 1014.70 1014.82 1014.94 1015.08 1015.25 1015.47 1015.74 1016.04 1016.36 1016.67 1016.95 1017.17 1017.32 1017.40 1017.44 1017.44 1017.45 1017.49 1017.57 1017.72 1017.93 1018.17 1018.43 1018.67 1018.87 1019.00 1019.05 1019.03 1018.95 1018.83 1018.71 1018.61 1018.56 1018.54
1013.54 1013.42 1013.37 1013.38 1013.43 1013.50 1013.59 1013.67 1013.75 1013.82 1013.90 1014.01 1014.15 1014.36 1014.62 1014.94 1015.30 1015.68 1016.06 1016.41 1016.70 1016.92 1017.06 1017.14 1017.17 1017.20 1017.23 1017.31 1017.45 1017.65 1017.91 1018.20 1018.51 1018.79 1019.02 1019.19 1019.28 1019.30 1019.27 1019.21 1019.14 1019.09 1019.07 1019.08
1013.91 1013.80 1013.69 1013.59 1013.48 1013.38 1013.28 1013.20 1013.12 1013.09 1013.11 1013.19 1013.36 1013.62 1013.96 1014.37 1014.82 1015.28 1015.72 1016.11 1016.42 1016.65 1016.80 1016.89 1016.94 1016.98 1017.05 1017.16 1017.33 1017.56 1017.85 1018.17 1018.49 1018.79 1019.04 1019.24 1019.36 1019.44 1019.46 1019.47 1019.47 1019.48 1019.51 1019.56
1014.17 1014.05 1013.88 1013.67 1013.43 1013.18 1012.92 1012.68 1012.48 1012.35 1012.31 1012.38 1012.57 1012.88 1013.29 1013.77 1014.30 1014.83 1015.33 1015.77 1016.12 1016.39 1016.57 1016.68 1016.76 1016.83 1016.92 1017.05 1017.24 1017.48 1017.77 1018.08 1018.39 1018.68 1018.94 1019.14 1019.30 1019.42 1019.51 1019.58 1019.66 1019.74 1019.84 1019.94
1014.22 1014.06 1013.83 1013.53 1013.17 1012.79 1012.41 1012.05 1011.76 1011.57 1011.50 1011.57 1011.78 1012.13 1012.60 1013.15 1013.75 1014.35 1014.92 1015.41 1015.82 1016.14 1016.37 1016.53 1016.65 1016.75 1016.86 1017.01 1017.20 1017.42 1017.68 1017.96 1018.24 1018.50 1018.74 1018.94 1019.12 1019.28 1019.43 1019.57 1019.72 1019.89 1020.05 1020.21
1013.98 1013.77 1013.46 1013.08 1012.64 1012.17 1011.70 1011.28 1010.95 1010.73 1010.65 1010.73 1010.98 1011.37 1011.90 1012.52 1013.18 1013.85 1014.49 1015.06 1015.54 1015.93 1016.22 1016.44 1016.61 1016.75 1016.89 1017.03 1017.20 1017.40 1017.61 1017.84 1018.07 1018.29 1018.50 1018.70 1018.90 1019.10 1019.30 1019.52 1019.75 1019.99 1020.22 1020.45
1013.45 1013.15 1012.77 1012.31 1011.81 1011.29 1010.79 1010.35 1010.01 1009.81 1009.76 1009.88 1010.18 1010.63 1011.21 1011.90 1012.63 1013.38 1014.09 1014.74 1015.30 1015.76 1016.13 1016.42 1016.64 1016.82 1016.97 1017.11 1017.26 1017.41 1017.58 1017.75 1017.93 1018.11 1018.30 1018.50 1018.72 1018.96 1019.22 1019.51 1019.82 1020.14 1020.45 1020.73
1012.64 1012.25 1011.78 1011.26 1010.72 1010.19 1009.70 1009.29 1008.99 1008.84 1008.86 1009.04 1009.41 1009.93 1010.58 1011.34 1012.14 1012.96 1013.75 1014.48 1015.12 1015.66 1016.11 1016.46 1016.73 1016.93 1017.10 1017.23 1017.35 1017.47 1017.58 1017.71 1017.85 1018.01 1018.20 1018.42 1018.67 1018.96 1019.30 1019.66 1020.04 1020.44 1020.81 1021.16
1011.66 1011.16 1010.61 1010.04 1009.49 1008.97 1008.52 1008.17 1007.95 1007.89 1007.99 1008.27 1008.71 1009.32 1010.04 1010.87 1011.75 1012.64 1013.51 1014.31 1015.02 1015.64 1016.14 1016.54 1016.85 1017.08 1017.24 1017.37 1017.46 1017.55 1017.63 1017.74 1017.86 1018.03 1018.24 1018.49 1018.80 1019.17 1019.58 1020.02 1020.49 1020.95 1021.39 1021.79
1010.63 1010.02 1009.40 1008.80 1008.24 1007.76 1007.37 1007.11 1006.99 1007.03 1007.23 1007.61 1008.15 1008.84 1009.65 1010.54 1011.49 1012.45 1013.38 1014.24 1015.02 1015.68 1016.24 1016.67 1017.00 1017.23 1017.40 1017.50 1017.58 1017.65 1017.73 1017.83 1017.97 1018.17 1018.43 1018.75 1019.14 1019.59 1020.09 1020.62 1021.16 1021.69 1022.18 1022.62
1009.68 1008.97 1008.30 1007.68 1007.14 1006.70 1006.39 1006.21 1006.20 1006.34 1006.65 1007.12 1007.76 1008.52 1009.40 1010.37 1011.37 1012.39 1013.37 1014.28 1015.09 1015.80 1016.37 1016.82 1017.16 1017.39 1017.54 1017.64 1017.71 1017.78 1017.86 1017.99 1018.18 1018.44 1018.77 1019.18 1019.67 1020.21 1020.80 1021.41 1022.02 1022.61 1023.15 1023.62
1008.89 1008.13 1007.42 1006.80 1006.30 1005.91 1005.67 1005.58 1005.65 1005.89 1006.29 1006.84 1007.55 1008.38 1009.32 1010.34 1011.39 1012.44 1013.45 1014.40 1015.24 1015.96 1016.54 1016.99 1017.32 1017.55 1017.69 1017.78 1017.85 1017.93 1018.05 1018.22 1018.48 1018.81 1019.23 1019.74 1020.32 1020.95 1021.63 1022.31 1022.98 1023.61 1024.19 1024.68
1008.31 1007.53 1006.83 1006.24 1005.77 1005.44 1005.26 1005.24 1005.39 1005.69 1006.15 1006.76 1007.52 1008.39 1009.37 1010.41 1011.49 1012.57 1013.60 1014.56 1015.42 1016.14 1016.73 1017.18 1017.50 1017.72 1017.86 1017.96 1018.04 1018.14 1018.30 1018.53 1018.85 1019.27 1019.78 1020.37 1021.04 1021.75 1022.49 1023.22 1023.93 1024.59 1025.18 1025.69
Thickness
5746 5741 5735 5738 5741 5740 5738 5734 5731 5734 5739 5734 5731 5730 5734 5737 5736 5735 5736 5736 5736 5736 5739 5739 5737 5736 5733 5731 5730 5729 5726 5723 5720 5716 5713 5711 5708 5708 5707 5706 5704 5703 5703 5702
5735 5730 5736 5738 5737 5734 5732 5729 5728 5731 5734 5731 5728 5728 5733 5734 5733 5733 5733 5734 5734 5734 5735 5734 5733 5733 5730 5728 5728 5727 5724 5722 5719 5715 5714 5711 5708 5706 5705 5703 5702 5701 5701 5700
5728 5730 5734 5731 5727 5726 5727 5726 5726 5723 5725 5729 5724 5722 5726 5731 5732 5731 5732 5734 5734 5732 5731 5731 5730 5728 5727 5726 5725 5724 5723 5721 5718 5715 5712 5709 5706 5704 5702 5701 5700 5699 5699 5698
5725 5729 5727 5725 5723 5724 5720 5727 5725 5720 5717 5717 5717 5711 5722 5726 5725 5726 5728 5729 5730 5730 5730 5729 5727 5725 5724 5724 5724 5723 5721 5719 5717 5714 5710 5707 5703 5701 5701 5700 5699 5698 5697 5695
5718 5721 5720 5718 5720 5722 5721 5724 5722 5719 5716 5713 5714 5709 5718 5721 5717 5721 5725 5726 5727 5727 5727 5726 5725 5723 5723 5722 5720 5719 5718 5716 5714 5712 5708 5706 5704 5703 5702 5700 5698 5697 5695 5693
5718 5721 5720 5719 5720 5720 5719 5718 5715 5715 5713 5700 5709 5705 5707 5718 5717 5719 5722 5723 5723 5724 5723 5723 5722 5721 5719 5718 5716 5714 5714 5712 5711 5709 5708 5706 5703 5702 5700 5698 5696 5695 5693 5692
5707 5711 5715 5717 5711 5713 5714 5707 5699 5697 5696 5699 5706 5700 5705 5717 5718 5718 5718 5720 5720 5720 5719 5719 5718 5716 5715 5714 5712 5711 5710 5709 5708 5707 5707 5706 5704 5703 5700 5698 5696 5694 5692 5691
5699 5698 5705 5709 5708 5705 5706 5707 5695 5688 5691 5697 5699 5697 5709 5716 5717 5717 5717 5717 5716 5715 5715 5714 5714 5713 5712 5711 5709 5708 5707 5706 5706 5705 5705 5706 5704 5702 5700 5699 5697 5695 5693 5692
5698 5695 5702 5702 5706 5706 5700 5700 5705 5697 5693 5687 5696 5701 5707 5710 5709 5709 5710 5710 5709 5709 5710 5710 5710 5710 5710 5708 5707 5706 5705 5704 5705 5704 5704 5704 5703 5701 5699 5698 5697 5696 5694 5692
5697 5690 5694 5696 5699 5697 5700 5699 5695 5688 5678 5678 5687 5691 5697 5698 5699 5701 5702 5703 5704 5705 5705 5706 5706 5706 5706 5706 5705 5704 5704 5703 5703 5703 5702 5702 5701 5700 5698 5697 5695 5695 5694 5691
5690 5687 5685 5688 5686 5686 5687 5687 5688 5687 5685 5677 5677 5687 5702 5698 5697 5697 5698 5700 5700 5700 5700 5701 5702 5703 5703 5703 5702 5701 5701 5701 5701 5701 5700 5699 5699 5698 5697 5695 5693 5693 5692 5691
5682 5683 5679 5681 5685 5686 5685 5684 5683 5676 5676 5677 5675 5683 5700 5697 5696 5695 5694 5696 5696 5696 5696 5696 5696 5697 5698 5698 5698 5698 5698 5698 5698 5698 5697 5697 5697 5695 5695 5693 5692 5692 5692 5690
5674 5673 5668 5669 5671 5675 5675 5675 5675 5676 5674 5671 5668 5678 5694 5693 5691 5690 5689 5690 5691 5691 5691 5691 5691 5691 5692 5692 5693 5693 5694 5694 5694 5694 5694 5694 5694 5694 5693 5692 5691 5691 5690 5689
5668 5668 5665 5663 5668 5669 5666 5665 5666 5667 5665 5667 5670 5675 5683 5684 5683 5683 5684 5684 5685 5685 5685 5686 5685 5686 5687 5687 5688 5689 5689 5690 5690 5690 5690 5691 5691 5691 5691 5690 5689 5689 5688 5687
5662 5659 5661 5662 5662 5661 5660 5660 5660 5661 5665 5664 5670 5671 5676 5678 5678 5678 5679 5679 5678 5678 5678 5680 5680 5682 5682 5683 5683 5685 5685 5685 5686 5686 5686 5687 5688 5688 5687 5686 5685 5685 5685 5685
5654 5652 5653 5651 5654 5653 5653 5658 5658 5658 5660 5661 5662 5665 5675 5675 5673 5672 5672 5671 5671 5672 5673 5674 5676 5677 5678 5679 5679 5680 5681 5681 5682 5682 5683 5683 5683 5683 5682 5682 5681 5681 5681 5682
5645 5645 5643 5645 5647 5645 5647 5659 5658 5657 5659 5659 5656 5663 5666 5664 5663 5663 5664 5664 5665 5666 5667 5668 5670 5673 5674 5675 5676 5676 5677 5678 5678 5678 5679 5679 5678 5678 5678 5678 5677 5676 5677 5677
5637 5635 5635 5637 5636 5631 5657 5663 5659 5653 5653 5654 5654 5657 5656 5656 5658 5660 5660 5659 5660 5661 5662 5664 5666 5668 5670 5672 5672 5673 5674 5674 5675 5675 5675 5675 5674 5674 5674 5673 5673 5673 5674 5674
5633 5629 5626 5627 5628 5637 5647 5651 5649 5646 5647 5650 5648 5649 5650 5651 5652 5655 5656 5655 5655 5656 5658 5660 5661 5663 5665 5666 5667 5667 5669 5670 5672 5672 5672 5671 5671 5669 5669 5669 5670 5670 5670 5670
5623 5624 5622 5620 5617 5625 5641 5645 5645 5641 5638 5643 5642 5641 5641 5641 5640 5647 5649 5648 5649 5650 5653 5654 5656 5658 5658 5660 5661 5662 5663 5665 5667 5668 5668 5668 5667 5666 5666 5666 5667 5667 5666 5667
5613 5611 5611 5614 5615 5629 5635 5635 5634 5624 5632 5635 5636 5635 5634 5633 5636 5640 5642 5642 5642 5644 5646 5648 5650 5651 5652 5654 5655 5656 5659 5660 5663 5664 5664 5663 5663 5663 5663 5662 5662 5662 5662 5663
5612 5611 5610 5610 5608 5617 5626 5624 5622 5626 5630 5629 5629 5628 5628 5629 5631 5632 5633 5634 5635 5637 5639 5641 5642 5644 5646 5647 5648 5651 5653 5656 5657 5657 5657 5657 5657 5657 5658 5657 5657 5657 5657 5657
5605 5608 5610 5612 5615 5620 5620 5619 5620 5621 5620 5621 5621 5621 5621 5620 5621 5622 5624 5626 5628 5630 5632 5634 5635 5637 5640 5641 5643 5645 5648 5649 5650 5651 5652 5651 5651 5651 5652 5652 5652 5652 5652 5653
5601 5600 5600 5602 5608 5611 5611 5612 5612 5612 5612 5613 5613 5613 5613 5613 5614 5615 5617 5618 5620 5622 5624 5626 5628 5629 5632 5635 5636 5639 5642 5644 5645 5646 5646 5646 5646 5646 5646 5646 5648 5648 5647 5648
5594 5592 5593 5595 5600 5601 5603 5603 5604 5604 5605 5605 5605 5605 5605 5606 5607 5609 5610 5612 5613 5615 5617 5619 5620 5622 5625 5628 5631 5634 5636 5638 5640 5641 5641 5641 5641 5641 5641 5641 5642 5644 5645 5646
5588 5588 5587 5591 5596 5595 5597 5598 5597 5596 5595 5596 5596 5597 5598 5598 5599 5601 5603 5605 5606 5608 5610 5611 5614 5617 5620 5622 5626 5629 5632 5633 5635 5636 5636 5635 5635 5636 5635 5635 5635 5635 5637 5637